GFSNE_prec_precacc_225.txt.gz
Total_Precipitation_Accumulation
2.97 2.68 2.23 1.83 1.77 1.65 1.57 1.64 2.04 2.21 1.80 1.03 0.68 0.48 0.48 0.64 0.83 1.03 1.06 1.05 1.12 1.09 1.24 1.54 1.34 1.33 1.67 1.75 1.67 1.66 1.68 1.65 1.42 1.33 1.22 1.24 1.48 1.77
2.79 2.61 2.17 1.69 1.56 1.39 1.41 1.33 1.25 1.45 1.56 0.98 0.82 0.57 0.52 0.46 0.49 0.62 0.88 1.23 1.10 0.97 0.93 1.17 1.58 1.55 1.30 1.56 1.85 1.92 1.96 1.77 1.56 1.44 1.47 1.29 1.29 1.53
2.47 2.48 2.31 2.26 2.34 1.91 1.65 1.65 1.50 1.55 1.63 1.09 0.99 1.03 0.94 0.71 0.56 0.64 0.74 0.93 1.05 0.96 0.76 0.81 1.13 1.60 1.74 1.56 1.48 1.79 2.21 2.19 1.77 1.45 1.26 1.29 1.29 1.30
2.19 2.53 2.43 2.59 2.80 2.56 2.33 1.95 1.76 1.55 1.91 1.67 1.55 1.59 1.72 1.53 1.08 0.78 0.62 0.68 0.84 1.12 0.98 0.72 0.66 0.89 1.44 1.74 1.76 1.63 1.71 2.14 2.14 1.71 1.39 1.22 1.26 1.37
1.94 1.97 2.06 2.37 2.47 2.49 2.51 2.21 2.13 2.31 2.57 2.43 2.21 1.82 1.58 1.53 1.38 1.29 1.04 0.78 0.74 1.13 1.14 1.26 1.09 0.83 0.84 1.13 1.52 1.68 1.59 1.49 1.83 2.01 1.68 1.44 1.26 1.20
2.27 2.18 2.03 2.24 2.21 2.42 2.79 2.95 2.89 3.01 2.96 2.63 2.61 2.38 2.08 1.78 1.60 1.68 1.71 1.53 1.25 1.13 1.41 1.43 1.39 1.30 1.04 0.89 1.02 1.26 1.59 1.83 1.70 1.84 2.04 1.83 1.50 1.44
2.59 2.55 2.56 2.85 2.98 2.90 2.81 2.72 2.96 3.06 2.99 3.27 3.37 2.98 2.69 2.63 2.19 1.93 1.68 1.63 1.68 1.53 1.44 1.44 1.42 1.43 1.46 1.28 1.08 1.15 1.28 1.51 1.76 1.82 1.92 1.98 1.95 1.54
2.61 2.37 2.39 2.81 2.69 3.20 3.19 3.29 3.17 3.02 2.97 2.64 2.60 2.57 2.45 2.02 2.23 2.40 2.44 2.27 2.14 1.58 1.68 1.72 1.63 1.62 1.51 1.42 1.52 1.31 1.15 1.25 1.41 1.60 1.75 1.91 2.03 2.15
2.69 2.61 2.74 3.14 3.15 2.71 3.20 3.26 3.56 3.51 3.00 2.74 2.64 2.11 2.21 2.05 2.08 2.50 2.08 1.71 1.59 1.23 1.66 2.18 1.98 2.03 1.74 1.88 2.12 1.71 1.56 1.57 1.61 1.63 1.73 1.96 2.07 2.28
2.36 2.51 2.70 2.89 2.98 2.85 2.92 3.13 2.88 2.70 2.58 2.52 2.47 2.26 1.89 1.83 2.22 2.32 2.62 3.03 2.61 2.00 2.27 2.70 1.83 1.82 1.69 1.62 2.00 2.01 1.92 1.83 1.98 2.05 2.07 2.06 2.21 2.29
1.52 1.89 2.24 2.53 3.29 2.97 2.85 3.07 2.89 2.59 2.65 2.78 2.81 2.57 2.76 2.90 2.72 3.16 3.24 3.02 2.83 1.97 1.64 1.83 1.51 1.67 1.84 1.77 1.74 1.80 1.98 2.07 2.03 2.23 2.40 2.39 2.46 2.83
1.01 1.37 1.93 1.96 2.29 2.13 2.13 2.15 2.36 2.27 2.07 2.14 2.39 2.74 2.68 2.88 2.78 2.54 2.73 2.89 2.50 2.71 1.67 1.67 1.30 1.36 2.03 1.61 1.50 1.71 1.73 1.84 1.96 1.96 1.97 2.19 2.48 2.79
0.91 0.88 1.05 1.45 1.52 1.57 1.63 1.72 1.86 1.67 1.75 1.89 2.05 2.18 2.26 2.28 2.55 2.50 2.45 2.95 2.88 2.19 1.47 1.99 1.74 1.37 1.66 1.25 1.21 1.37 1.47 1.74 1.93 2.00 2.01 1.98 2.11 2.42
1.30 1.31 1.41 1.27 1.05 1.07 1.27 1.54 1.49 1.36 1.47 1.72 1.89 1.95 2.08 2.10 1.95 2.07 2.07 2.19 2.19 2.51 1.99 2.46 2.57 1.47 1.77 1.61 1.16 1.33 1.58 1.76 1.93 1.81 1.90 2.19 2.21 2.24
1.19 1.40 1.44 1.29 1.04 1.02 0.98 1.02 1.14 1.33 1.41 1.49 1.48 1.43 1.48 1.63 1.71 1.91 2.12 2.15 2.26 2.37 2.47 2.46 2.39 1.83 1.94 1.90 1.44 1.31 1.65 1.85 1.79 1.67 1.70 1.68 1.65 1.67
1.39 1.32 1.20 1.07 1.04 1.20 1.19 1.03 1.03 1.07 1.13 1.23 1.20 1.14 1.09 1.25 1.44 1.58 1.79 1.86 2.35 2.42 2.08 2.21 2.43 2.60 2.44 1.79 1.50 1.55 1.44 1.53 1.62 1.62 1.64 1.74 1.65 1.44
1.31 1.41 1.27 0.98 0.85 0.77 0.72 0.60 0.56 0.59 0.67 0.66 0.75 0.84 0.99 1.04 1.10 1.21 1.41 1.52 1.81 1.68 1.82 1.86 2.07 2.30 2.21 1.96 1.99 1.56 1.49 1.62 1.63 1.60 1.71 1.76 1.60 1.65
1.16 0.98 0.90 0.87 0.85 0.76 0.81 0.81 0.57 0.53 0.43 0.45 0.56 0.54 0.66 0.84 0.94 1.04 1.19 1.35 1.40 1.55 1.74 1.80 1.86 2.34 2.34 1.79 1.55 1.57 1.96 1.98 1.76 1.57 1.51 1.71 1.66 1.61
1.21 1.05 0.99 0.98 0.96 0.87 0.82 0.72 0.69 0.69 0.61 0.61 0.64 0.62 0.56 0.59 0.83 0.81 0.92 1.14 1.21 1.11 1.31 1.65 1.86 1.98 2.27 2.14 1.45 1.28 1.58 1.48 1.56 1.68 1.66 1.62 1.70 1.52
1.16 1.12 1.12 1.03 0.94 0.88 0.79 0.71 0.65 0.61 0.55 0.53 0.68 0.68 0.68 0.68 0.68 0.69 0.74 0.88 0.99 0.95 0.90 1.01 1.34 1.61 1.92 1.94 1.85 1.47 1.41 1.43 1.59 1.61 1.60 1.55 1.58 1.69
1.21 1.25 1.27 1.20 1.09 0.95 0.87 0.78 0.74 0.72 0.66 0.62 0.62 0.60 0.60 0.67 0.67 0.65 0.72 0.77 0.82 0.87 0.94 0.91 1.02 1.29 1.43 1.59 1.92 1.79 1.75 1.55 1.41 1.65 1.68 2.00 1.68 1.52
1.75 1.62 1.48 1.46 1.40 1.27 1.18 1.05 0.94 0.86 0.79 0.71 0.70 0.69 0.70 0.70 0.69 0.70 0.75 0.91 0.91 0.88 0.92 0.86 0.85 1.00 1.26 1.46 1.62 1.54 1.63 1.74 1.52 1.42 1.53 1.84 1.95 1.78
1.60 1.53 1.45 1.35 1.26 1.22 1.14 1.09 1.02 1.02 0.94 0.88 0.83 0.80 0.80 0.81 0.76 0.75 0.72 0.68 0.69 0.70 0.70 0.86 0.89 1.00 1.17 1.23 1.45 1.67 1.49 1.52 1.57 1.44 1.63 1.35 1.25 1.10

GFSNE_prec_precacc_231.txt.gz
Total_Precipitation_Accumulation
3.04 2.74 2.28 1.87 1.80 1.69 1.62 1.69 2.11 2.29 1.86 1.05 0.69 0.49 0.50 0.66 0.85 1.05 1.06 1.06 1.16 1.18 1.38 1.67 1.43 1.39 1.72 1.78 1.70 1.70 1.72 1.68 1.45 1.34 1.22 1.25 1.48 1.77
2.93 2.74 2.28 1.78 1.62 1.44 1.45 1.35 1.27 1.50 1.60 0.99 0.84 0.58 0.54 0.48 0.52 0.65 0.89 1.25 1.13 1.04 1.05 1.34 1.73 1.65 1.37 1.62 1.89 1.96 1.98 1.80 1.58 1.45 1.48 1.30 1.30 1.55
2.54 2.54 2.34 2.30 2.37 1.92 1.66 1.66 1.51 1.57 1.66 1.10 1.01 1.05 0.97 0.74 0.62 0.71 0.79 0.97 1.07 1.00 0.83 0.97 1.33 1.78 1.87 1.65 1.57 1.85 2.25 2.22 1.81 1.46 1.27 1.31 1.31 1.32
2.20 2.53 2.43 2.60 2.80 2.56 2.34 1.95 1.76 1.56 1.93 1.68 1.56 1.62 1.76 1.55 1.10 0.82 0.68 0.77 0.93 1.23 1.09 0.86 0.87 1.13 1.63 1.89 1.89 1.72 1.78 2.20 2.18 1.73 1.40 1.23 1.26 1.37
1.95 1.98 2.06 2.37 2.47 2.49 2.51 2.21 2.13 2.32 2.57 2.44 2.22 1.85 1.63 1.57 1.41 1.32 1.09 0.92 0.93 1.32 1.35 1.48 1.35 1.11 1.09 1.33 1.68 1.79 1.67 1.54 1.86 2.02 1.68 1.44 1.26 1.20
2.28 2.18 2.03 2.24 2.21 2.42 2.79 2.95 2.89 3.01 2.96 2.64 2.62 2.42 2.16 1.85 1.65 1.72 1.81 1.68 1.44 1.37 1.73 1.80 1.81 1.69 1.38 1.17 1.21 1.40 1.68 1.88 1.73 1.85 2.04 1.84 1.52 1.45
2.61 2.56 2.56 2.85 2.98 2.90 2.81 2.72 2.96 3.06 2.99 3.28 3.39 3.03 2.78 2.71 2.26 2.03 1.80 1.77 1.87 1.80 1.83 1.95 1.93 1.95 1.93 1.64 1.36 1.31 1.39 1.58 1.79 1.84 1.94 2.01 1.98 1.56
2.62 2.37 2.39 2.82 2.69 3.20 3.19 3.30 3.18 3.04 3.00 2.69 2.68 2.65 2.54 2.07 2.26 2.49 2.66 2.55 2.48 2.00 2.02 2.19 2.12 2.10 1.91 1.72 1.77 1.48 1.25 1.35 1.49 1.65 1.80 1.95 2.06 2.16
2.69 2.61 2.74 3.14 3.15 2.71 3.20 3.28 3.57 3.53 3.06 2.83 2.76 2.25 2.32 2.11 2.14 2.64 2.29 1.82 1.73 1.46 1.93 2.69 2.60 2.51 2.11 2.17 2.33 1.88 1.70 1.70 1.72 1.73 1.78 1.99 2.09 2.29
2.36 2.51 2.70 2.89 2.99 2.85 2.92 3.14 2.89 2.72 2.62 2.56 2.54 2.36 2.01 1.96 2.40 2.57 2.92 3.36 3.09 2.51 2.74 3.26 2.45 2.35 2.15 2.01 2.28 2.23 2.12 1.97 2.09 2.12 2.09 2.08 2.22 2.30
1.52 1.89 2.24 2.53 3.30 2.98 2.85 3.07 2.90 2.61 2.69 2.81 2.84 2.64 2.87 3.07 2.94 3.50 3.69 3.48 3.40 2.59 2.23 2.27 2.04 2.18 2.41 2.34 2.16 2.10 2.17 2.21 2.12 2.29 2.42 2.40 2.48 2.85
1.01 1.37 1.94 1.96 2.30 2.13 2.13 2.15 2.37 2.30 2.10 2.17 2.42 2.79 2.74 2.99 2.93 2.66 2.87 3.16 2.82 3.18 2.13 2.00 1.69 1.74 2.60 2.17 1.89 1.99 1.92 1.97 2.07 2.03 2.01 2.22 2.53 2.82
0.91 0.88 1.05 1.46 1.52 1.58 1.64 1.72 1.89 1.72 1.82 1.95 2.10 2.28 2.38 2.42 2.70 2.68 2.63 3.07 3.07 2.41 1.65 2.20 2.03 1.69 1.89 1.47 1.49 1.63 1.68 1.93 2.06 2.07 2.05 2.02 2.15 2.45
1.31 1.32 1.42 1.29 1.07 1.08 1.28 1.55 1.55 1.43 1.54 1.79 1.98 2.05 2.20 2.25 2.12 2.29 2.29 2.36 2.31 2.63 2.17 2.59 2.73 1.60 1.88 1.76 1.37 1.58 1.81 1.92 2.01 1.86 1.92 2.20 2.23 2.25
1.20 1.43 1.47 1.31 1.06 1.03 0.99 1.06 1.22 1.42 1.50 1.58 1.57 1.52 1.60 1.76 1.83 2.07 2.31 2.31 2.45 2.61 2.63 2.57 2.47 1.93 2.03 2.00 1.56 1.45 1.83 2.01 1.87 1.70 1.71 1.68 1.65 1.67
1.42 1.35 1.24 1.09 1.06 1.22 1.22 1.08 1.12 1.19 1.25 1.34 1.29 1.24 1.18 1.36 1.55 1.67 1.89 1.98 2.46 2.59 2.27 2.38 2.56 2.70 2.58 1.92 1.60 1.67 1.52 1.58 1.66 1.64 1.64 1.74 1.65 1.44
1.37 1.44 1.30 1.00 0.88 0.80 0.77 0.69 0.71 0.76 0.81 0.79 0.85 0.92 1.04 1.09 1.17 1.31 1.48 1.57 1.85 1.74 1.92 1.99 2.20 2.41 2.28 2.01 2.05 1.61 1.53 1.64 1.64 1.60 1.71 1.76 1.60 1.65
1.22 1.00 0.92 0.89 0.87 0.79 0.88 0.96 0.77 0.69 0.55 0.55 0.64 0.58 0.69 0.86 0.97 1.11 1.25 1.39 1.43 1.60 1.78 1.85 1.89 2.37 2.35 1.81 1.57 1.59 1.98 1.98 1.76 1.57 1.51 1.71 1.66 1.61
1.25 1.07 1.02 1.01 1.00 0.92 0.91 0.89 0.88 0.85 0.72 0.69 0.69 0.65 0.57 0.61 0.84 0.83 0.95 1.17 1.24 1.14 1.34 1.68 1.87 1.98 2.27 2.14 1.46 1.28 1.58 1.48 1.56 1.68 1.66 1.62 1.70 1.52
1.18 1.13 1.15 1.07 0.97 0.95 0.90 0.88 0.81 0.73 0.64 0.60 0.72 0.71 0.70 0.69 0.70 0.71 0.75 0.89 0.99 0.96 0.91 1.02 1.35 1.61 1.92 1.94 1.85 1.47 1.41 1.43 1.59 1.61 1.60 1.55 1.58 1.69
1.23 1.28 1.30 1.23 1.15 1.05 0.98 0.93 0.86 0.82 0.73 0.68 0.66 0.63 0.62 0.68 0.68 0.66 0.73 0.77 0.82 0.87 0.94 0.91 1.02 1.29 1.43 1.59 1.92 1.79 1.75 1.55 1.41 1.65 1.68 2.00 1.68 1.52
1.77 1.63 1.50 1.48 1.46 1.37 1.28 1.17 1.04 0.95 0.86 0.76 0.73 0.71 0.71 0.71 0.69 0.70 0.75 0.91 0.91 0.88 0.92 0.86 0.85 1.00 1.26 1.46 1.62 1.54 1.63 1.74 1.52 1.42 1.53 1.84 1.95 1.78
1.61 1.54 1.47 1.37 1.33 1.30 1.23 1.19 1.11 1.09 0.99 0.90 0.85 0.81 0.80 0.81 0.76 0.75 0.72 0.68 0.69 0.70 0.70 0.86 0.89 1.00 1.17 1.23 1.45 1.67 1.49 1.52 1.57 1.44 1.63 1.35 1.25 1.10

GFSNE_prec_precacc_237.txt.gz
Total_Precipitation_Accumulation
3.04 2.74 2.28 1.87 1.80 1.69 1.64 1.75 2.28 2.48 1.94 1.06 0.70 0.50 0.51 0.67 0.87 1.08 1.11 1.17 1.40 1.49 1.68 2.00 1.89 1.96 2.23 1.97 1.81 1.81 1.86 1.87 1.62 1.49 1.34 1.32 1.52 1.80
2.93 2.74 2.28 1.78 1.62 1.44 1.45 1.38 1.34 1.61 1.68 1.00 0.84 0.59 0.54 0.49 0.53 0.67 0.91 1.26 1.17 1.18 1.34 1.70 2.27 2.33 2.17 2.32 2.18 2.15 2.16 1.98 1.73 1.56 1.58 1.36 1.34 1.57
2.54 2.54 2.34 2.30 2.37 1.92 1.67 1.68 1.54 1.67 1.77 1.11 1.01 1.05 0.97 0.74 0.62 0.71 0.80 0.98 1.08 1.01 0.87 1.10 1.63 2.27 2.58 2.54 2.36 2.25 2.56 2.50 2.03 1.59 1.37 1.37 1.35 1.33
2.20 2.53 2.43 2.60 2.81 2.57 2.34 1.96 1.77 1.59 1.98 1.69 1.56 1.62 1.76 1.55 1.10 0.82 0.68 0.78 0.94 1.25 1.10 0.87 0.92 1.38 2.08 2.45 2.68 2.58 2.36 2.68 2.56 2.01 1.57 1.31 1.30 1.39
1.95 1.99 2.08 2.40 2.48 2.50 2.51 2.21 2.13 2.32 2.59 2.45 2.22 1.86 1.63 1.57 1.41 1.33 1.10 0.92 0.93 1.33 1.36 1.49 1.36 1.16 1.27 1.76 2.25 2.45 2.40 2.24 2.36 2.35 1.91 1.59 1.35 1.24
2.28 2.19 2.05 2.25 2.21 2.42 2.79 2.95 2.89 3.01 2.97 2.65 2.62 2.42 2.16 1.85 1.65 1.73 1.81 1.68 1.44 1.37 1.74 1.82 1.83 1.73 1.47 1.36 1.56 1.92 2.22 2.47 2.37 2.32 2.38 2.03 1.62 1.54
2.61 2.56 2.56 2.85 2.98 2.90 2.81 2.72 2.97 3.07 3.00 3.29 3.40 3.04 2.79 2.71 2.27 2.03 1.81 1.78 1.87 1.81 1.84 1.96 1.95 2.01 2.07 1.83 1.65 1.75 1.88 2.05 2.26 2.23 2.23 2.22 2.13 1.68
2.62 2.37 2.39 2.82 2.69 3.20 3.20 3.30 3.18 3.05 3.01 2.70 2.69 2.66 2.54 2.07 2.26 2.50 2.66 2.56 2.50 2.00 2.04 2.22 2.15 2.15 2.01 1.89 2.11 1.87 1.69 1.81 1.91 1.96 2.03 2.12 2.21 2.27
2.69 2.61 2.74 3.14 3.15 2.71 3.21 3.28 3.59 3.55 3.07 2.83 2.76 2.25 2.32 2.11 2.14 2.65 2.30 1.84 1.74 1.48 1.96 2.76 2.68 2.60 2.21 2.33 2.60 2.14 2.04 2.12 2.10 2.03 2.02 2.22 2.29 2.44
2.36 2.51 2.70 2.89 2.99 2.86 2.93 3.14 2.89 2.73 2.63 2.57 2.54 2.36 2.01 1.96 2.40 2.58 2.93 3.39 3.14 2.62 2.81 3.38 2.57 2.45 2.28 2.16 2.54 2.48 2.46 2.41 2.57 2.55 2.41 2.37 2.50 2.51
1.52 1.89 2.24 2.53 3.31 3.00 2.86 3.08 2.90 2.61 2.70 2.85 2.86 2.65 2.89 3.08 2.94 3.52 3.72 3.53 3.49 2.71 2.36 2.38 2.23 2.37 2.66 2.77 2.71 2.62 2.67 2.80 2.78 2.94 2.95 2.84 2.84 3.09
1.01 1.37 1.96 1.97 2.31 2.16 2.18 2.19 2.39 2.30 2.11 2.18 2.44 2.81 2.75 2.99 2.94 2.68 2.92 3.22 2.91 3.30 2.23 2.09 1.86 1.91 2.93 2.73 2.57 2.77 2.69 2.61 2.66 2.59 2.49 2.61 2.81 2.96
0.91 0.88 1.06 1.49 1.54 1.60 1.67 1.76 1.92 1.76 1.85 1.96 2.11 2.28 2.38 2.42 2.72 2.72 2.71 3.16 3.17 2.51 1.69 2.24 2.12 1.81 2.03 1.82 2.06 2.33 2.37 2.66 2.72 2.66 2.46 2.26 2.29 2.50
1.32 1.32 1.43 1.31 1.08 1.09 1.30 1.59 1.60 1.48 1.56 1.81 1.99 2.06 2.21 2.27 2.19 2.40 2.41 2.48 2.40 2.70 2.23 2.64 2.81 1.66 1.95 1.89 1.67 2.09 2.40 2.48 2.46 2.28 2.22 2.40 2.35 2.29
1.20 1.43 1.48 1.33 1.08 1.05 1.04 1.09 1.24 1.44 1.52 1.61 1.60 1.55 1.64 1.85 1.96 2.21 2.44 2.41 2.54 2.75 2.76 2.66 2.53 2.03 2.11 2.08 1.70 1.65 2.10 2.41 2.18 1.91 1.87 1.78 1.70 1.68
1.43 1.36 1.24 1.10 1.08 1.24 1.24 1.09 1.13 1.20 1.28 1.38 1.34 1.29 1.26 1.47 1.67 1.79 1.97 2.03 2.51 2.69 2.40 2.52 2.68 2.76 2.69 2.04 1.68 1.82 1.62 1.73 1.86 1.76 1.72 1.80 1.68 1.44
1.38 1.44 1.31 1.02 0.89 0.81 0.78 0.70 0.71 0.78 0.85 0.85 0.92 1.01 1.15 1.22 1.30 1.42 1.54 1.61 1.88 1.79 2.02 2.13 2.35 2.55 2.45 2.13 2.20 1.75 1.66 1.75 1.74 1.68 1.75 1.79 1.63 1.66
1.22 1.01 0.94 0.91 0.88 0.80 0.89 0.96 0.78 0.72 0.60 0.61 0.73 0.70 0.81 0.98 1.08 1.21 1.33 1.46 1.48 1.68 1.85 1.93 1.97 2.45 2.44 1.99 1.71 1.69 2.11 2.09 1.86 1.62 1.53 1.73 1.69 1.62
1.25 1.08 1.03 1.02 1.00 0.93 0.92 0.90 0.90 0.89 0.77 0.77 0.78 0.76 0.68 0.71 0.93 0.91 1.05 1.25 1.31 1.21 1.41 1.76 1.91 2.00 2.28 2.17 1.59 1.40 1.63 1.54 1.60 1.72 1.69 1.63 1.71 1.52
1.18 1.15 1.16 1.08 0.97 0.96 0.91 0.89 0.83 0.76 0.69 0.66 0.79 0.80 0.78 0.77 0.77 0.78 0.83 0.96 1.04 1.01 0.97 1.09 1.38 1.64 1.93 1.94 1.88 1.57 1.49 1.45 1.60 1.62 1.61 1.55 1.58 1.69
1.23 1.28 1.31 1.24 1.15 1.06 0.99 0.94 0.89 0.86 0.78 0.73 0.71 0.68 0.68 0.73 0.73 0.71 0.77 0.81 0.85 0.88 0.96 0.94 1.04 1.30 1.43 1.59 1.93 1.82 1.78 1.56 1.42 1.66 1.68 2.00 1.68 1.52
1.77 1.64 1.51 1.49 1.47 1.38 1.29 1.19 1.07 0.98 0.89 0.79 0.77 0.74 0.75 0.75 0.71 0.73 0.77 0.92 0.91 0.88 0.92 0.87 0.85 1.00 1.26 1.46 1.62 1.55 1.64 1.75 1.52 1.42 1.53 1.84 1.95 1.78
1.61 1.54 1.48 1.38 1.34 1.31 1.25 1.21 1.14 1.12 1.02 0.94 0.87 0.84 0.83 0.83 0.78 0.76 0.73 0.68 0.69 0.70 0.70 0.86 0.89 1.00 1.17 1.23 1.45 1.67 1.49 1.52 1.57 1.44 1.63 1.35 1.25 1.10

GFSNE_prec_precacc_240.txt.gz
Total_Precipitation_Accumulation
3.04 2.74 2.28 1.87 1.80 1.69 1.64 1.76 2.31 2.51 1.95 1.06 0.70 0.50 0.51 0.67 0.87 1.08 1.11 1.17 1.41 1.51 1.71 2.10 2.07 2.12 2.47 2.48 2.41 2.31 2.05 2.01 1.72 1.57 1.44 1.42 1.61 1.86
2.93 2.74 2.28 1.78 1.62 1.44 1.45 1.40 1.38 1.67 1.72 1.00 0.84 0.59 0.55 0.49 0.53 0.67 0.91 1.27 1.17 1.18 1.35 1.74 2.38 2.59 2.45 2.70 2.94 2.96 2.68 2.16 1.82 1.63 1.63 1.43 1.43 1.68
2.54 2.54 2.34 2.30 2.37 1.92 1.68 1.70 1.57 1.72 1.83 1.12 1.02 1.07 0.99 0.75 0.62 0.71 0.80 0.98 1.08 1.01 0.87 1.11 1.66 2.33 2.78 2.92 2.78 2.93 3.40 3.12 2.28 1.72 1.43 1.43 1.43 1.42
2.20 2.53 2.43 2.60 2.81 2.57 2.34 1.96 1.78 1.62 2.02 1.70 1.57 1.64 1.77 1.56 1.10 0.82 0.68 0.78 0.94 1.25 1.10 0.87 0.92 1.40 2.11 2.54 2.93 3.00 2.98 3.37 3.17 2.37 1.78 1.46 1.43 1.50
1.95 1.99 2.08 2.40 2.48 2.50 2.51 2.22 2.14 2.33 2.60 2.47 2.23 1.86 1.64 1.57 1.41 1.33 1.10 0.92 0.93 1.33 1.36 1.49 1.36 1.16 1.28 1.78 2.33 2.65 2.80 2.90 3.05 2.94 2.27 1.84 1.56 1.42
2.28 2.19 2.05 2.25 2.21 2.42 2.79 2.95 2.90 3.02 2.97 2.65 2.63 2.43 2.17 1.85 1.65 1.73 1.82 1.69 1.45 1.38 1.74 1.82 1.83 1.73 1.47 1.37 1.58 2.01 2.43 2.74 2.94 2.98 2.83 2.38 1.88 1.69
2.61 2.56 2.56 2.85 2.98 2.90 2.81 2.72 2.97 3.07 3.00 3.29 3.40 3.04 2.79 2.71 2.28 2.03 1.82 1.78 1.88 1.81 1.84 1.97 1.96 2.02 2.07 1.83 1.66 1.76 1.96 2.27 2.58 2.71 2.68 2.55 2.44 1.84
2.62 2.37 2.39 2.82 2.69 3.20 3.20 3.31 3.18 3.05 3.02 2.71 2.69 2.66 2.55 2.07 2.26 2.50 2.67 2.56 2.50 2.00 2.05 2.22 2.16 2.15 2.01 1.90 2.11 1.87 1.71 1.89 2.15 2.39 2.41 2.35 2.37 2.39
2.69 2.61 2.74 3.15 3.15 2.71 3.22 3.29 3.59 3.56 3.08 2.84 2.77 2.25 2.32 2.11 2.15 2.65 2.30 1.84 1.74 1.48 1.96 2.76 2.68 2.60 2.21 2.33 2.60 2.14 2.04 2.17 2.21 2.28 2.38 2.51 2.48 2.62
2.36 2.51 2.70 2.89 2.99 2.86 2.93 3.14 2.90 2.73 2.63 2.58 2.55 2.37 2.02 1.97 2.40 2.58 2.93 3.39 3.14 2.62 2.82 3.38 2.57 2.45 2.28 2.16 2.54 2.48 2.46 2.44 2.66 2.76 2.70 2.66 2.79 2.82
1.52 1.89 2.24 2.53 3.31 3.00 2.87 3.08 2.91 2.61 2.71 2.86 2.90 2.70 2.93 3.11 2.95 3.53 3.72 3.53 3.50 2.71 2.36 2.39 2.23 2.37 2.66 2.77 2.71 2.63 2.69 2.85 2.89 3.17 3.33 3.13 3.08 3.38
1.01 1.37 1.96 1.97 2.31 2.16 2.18 2.20 2.40 2.30 2.11 2.19 2.45 2.82 2.76 3.00 2.95 2.69 2.92 3.22 2.91 3.31 2.23 2.09 1.86 1.91 2.93 2.73 2.58 2.78 2.75 2.72 2.77 2.70 2.64 2.81 3.03 3.29
0.91 0.88 1.06 1.49 1.54 1.61 1.68 1.77 1.93 1.76 1.86 1.96 2.11 2.28 2.38 2.42 2.73 2.73 2.71 3.16 3.19 2.53 1.70 2.26 2.13 1.82 2.03 1.83 2.11 2.42 2.44 2.82 2.89 2.81 2.66 2.54 2.58 2.79
1.32 1.32 1.44 1.31 1.08 1.09 1.30 1.59 1.60 1.48 1.56 1.81 2.00 2.07 2.22 2.27 2.19 2.40 2.42 2.50 2.43 2.73 2.25 2.66 2.83 1.67 1.96 1.91 1.73 2.21 2.53 2.64 2.64 2.59 2.64 2.91 2.85 2.67
1.21 1.43 1.48 1.33 1.09 1.05 1.04 1.10 1.24 1.44 1.52 1.61 1.60 1.55 1.64 1.85 1.97 2.22 2.46 2.43 2.56 2.77 2.79 2.69 2.56 2.05 2.14 2.09 1.75 1.72 2.21 2.64 2.46 2.22 2.22 2.15 2.03 1.88
1.43 1.36 1.24 1.10 1.08 1.24 1.24 1.09 1.13 1.20 1.28 1.38 1.34 1.30 1.27 1.49 1.70 1.81 2.00 2.06 2.53 2.72 2.43 2.56 2.72 2.78 2.72 2.09 1.71 1.90 1.67 1.88 2.14 2.07 1.97 2.03 1.84 1.50
1.38 1.45 1.31 1.02 0.90 0.82 0.78 0.70 0.71 0.78 0.86 0.85 0.92 1.02 1.17 1.24 1.33 1.45 1.58 1.64 1.91 1.82 2.06 2.19 2.40 2.60 2.52 2.19 2.27 1.81 1.74 1.84 1.87 1.86 1.87 1.88 1.67 1.66
1.23 1.01 0.94 0.91 0.89 0.80 0.89 0.96 0.79 0.72 0.60 0.62 0.73 0.70 0.83 1.00 1.11 1.24 1.37 1.50 1.51 1.70 1.88 1.97 2.01 2.48 2.47 2.09 1.80 1.77 2.22 2.23 2.01 1.74 1.59 1.75 1.71 1.63
1.25 1.09 1.03 1.03 1.01 0.93 0.92 0.91 0.91 0.89 0.77 0.77 0.79 0.77 0.70 0.73 0.96 0.94 1.08 1.28 1.34 1.23 1.45 1.81 1.96 2.02 2.31 2.21 1.73 1.51 1.71 1.64 1.69 1.79 1.73 1.66 1.72 1.52
1.19 1.15 1.16 1.08 0.98 0.96 0.91 0.89 0.84 0.77 0.70 0.67 0.80 0.82 0.81 0.79 0.79 0.79 0.84 0.97 1.06 1.03 1.00 1.13 1.43 1.69 1.95 1.95 1.91 1.68 1.58 1.50 1.63 1.65 1.64 1.57 1.58 1.69
1.23 1.29 1.31 1.24 1.16 1.06 1.00 0.96 0.90 0.87 0.79 0.74 0.72 0.70 0.71 0.75 0.74 0.71 0.78 0.82 0.86 0.90 0.98 0.96 1.08 1.32 1.45 1.60 1.95 1.87 1.86 1.63 1.45 1.67 1.69 2.00 1.68 1.52
1.77 1.64 1.51 1.49 1.47 1.38 1.30 1.20 1.08 0.99 0.90 0.80 0.78 0.76 0.78 0.77 0.72 0.73 0.78 0.93 0.92 0.89 0.93 0.88 0.87 1.03 1.30 1.47 1.64 1.57 1.67 1.77 1.53 1.43 1.53 1.84 1.95 1.78
1.62 1.55 1.48 1.39 1.34 1.32 1.26 1.23 1.15 1.13 1.03 0.94 0.88 0.85 0.85 0.86 0.79 0.77 0.73 0.69 0.69 0.70 0.70 0.86 0.90 1.00 1.19 1.24 1.46 1.68 1.50 1.53 1.57 1.44 1.63 1.35 1.25 1.10

GFSNE_prec_precacc_246.txt.gz
Total_Precipitation_Accumulation
3.04 2.74 2.28 1.87 1.80 1.69 1.64 1.76 2.32 2.52 1.95 1.06 0.70 0.50 0.51 0.67 0.87 1.08 1.11 1.17 1.41 1.51 1.71 2.10 2.08 2.17 2.55 2.56 2.53 2.51 2.55 2.61 2.42 2.27 2.00 1.94 2.13 2.24
2.93 2.74 2.28 1.78 1.62 1.44 1.45 1.40 1.38 1.70 1.74 1.00 0.84 0.59 0.55 0.49 0.53 0.67 0.91 1.27 1.17 1.18 1.35 1.74 2.38 2.60 2.49 2.78 3.02 3.12 3.10 2.71 2.39 2.22 2.29 2.10 1.98 2.18
2.54 2.54 2.34 2.30 2.37 1.92 1.68 1.70 1.57 1.72 1.84 1.12 1.02 1.07 0.99 0.76 0.62 0.71 0.80 0.98 1.08 1.01 0.87 1.12 1.66 2.33 2.78 2.92 2.80 3.00 3.63 3.72 3.13 2.54 2.12 2.06 2.18 1.94
2.20 2.53 2.43 2.60 2.81 2.57 2.34 1.96 1.78 1.62 2.03 1.70 1.57 1.64 1.77 1.56 1.11 0.83 0.69 0.78 0.94 1.25 1.11 0.88 0.93 1.40 2.11 2.54 2.93 3.02 3.07 3.55 3.75 3.22 2.68 2.27 2.08 2.06
1.95 1.99 2.08 2.40 2.48 2.50 2.51 2.22 2.14 2.33 2.60 2.47 2.23 1.86 1.64 1.58 1.42 1.34 1.11 0.93 0.94 1.35 1.39 1.51 1.37 1.16 1.28 1.78 2.33 2.66 2.85 2.98 3.25 3.51 3.17 2.75 2.56 2.16
2.28 2.19 2.05 2.25 2.21 2.42 2.79 2.95 2.90 3.02 2.97 2.66 2.63 2.43 2.18 1.86 1.67 1.75 1.84 1.71 1.47 1.40 1.75 1.82 1.83 1.73 1.47 1.37 1.58 2.01 2.45 2.82 3.07 3.35 3.45 3.19 2.72 2.79
2.61 2.56 2.56 2.85 2.98 2.90 2.81 2.73 2.97 3.08 3.01 3.30 3.41 3.05 2.80 2.72 2.29 2.05 1.84 1.80 1.89 1.82 1.85 1.97 1.97 2.02 2.07 1.83 1.66 1.77 1.96 2.33 2.70 3.03 3.30 3.25 3.24 2.73
2.62 2.37 2.39 2.82 2.69 3.20 3.20 3.31 3.19 3.06 3.03 2.72 2.70 2.67 2.55 2.08 2.28 2.52 2.69 2.59 2.53 2.02 2.07 2.23 2.16 2.15 2.01 1.90 2.11 1.88 1.71 1.90 2.20 2.58 2.92 3.04 3.11 3.15
2.69 2.61 2.74 3.15 3.15 2.71 3.22 3.29 3.59 3.56 3.08 2.85 2.78 2.26 2.33 2.12 2.17 2.68 2.33 1.89 1.79 1.50 1.99 2.78 2.68 2.60 2.21 2.34 2.60 2.14 2.04 2.17 2.24 2.35 2.72 3.30 3.16 3.42
2.36 2.51 2.70 2.89 2.99 2.86 2.93 3.14 2.90 2.74 2.64 2.58 2.56 2.38 2.03 1.98 2.44 2.68 3.03 3.45 3.17 2.62 2.84 3.41 2.58 2.45 2.28 2.16 2.55 2.48 2.47 2.44 2.68 2.82 2.85 3.39 3.62 3.60
1.52 1.89 2.24 2.53 3.31 3.00 2.87 3.09 2.91 2.62 2.71 2.87 2.91 2.71 2.95 3.13 2.99 3.61 3.77 3.59 3.53 2.72 2.37 2.39 2.24 2.37 2.66 2.77 2.71 2.64 2.70 2.86 2.91 3.24 3.52 3.68 4.10 4.15
1.01 1.37 1.96 1.97 2.31 2.16 2.19 2.20 2.41 2.31 2.11 2.19 2.45 2.83 2.77 3.02 2.97 2.72 2.96 3.29 2.95 3.34 2.24 2.10 1.87 1.91 2.94 2.74 2.59 2.79 2.76 2.74 2.80 2.78 2.80 3.20 3.96 4.10
0.92 0.88 1.06 1.49 1.54 1.61 1.68 1.77 1.94 1.77 1.86 1.96 2.12 2.28 2.38 2.42 2.73 2.73 2.72 3.20 3.25 2.56 1.71 2.30 2.16 1.83 2.04 1.84 2.12 2.46 2.48 2.87 2.97 2.96 2.86 2.94 3.18 3.43
1.32 1.32 1.44 1.31 1.08 1.09 1.30 1.60 1.60 1.48 1.57 1.81 2.00 2.07 2.22 2.27 2.20 2.41 2.43 2.51 2.47 2.77 2.27 2.71 2.87 1.70 2.00 1.92 1.75 2.30 2.67 2.85 2.76 2.82 3.03 3.59 3.63 3.25
1.21 1.44 1.48 1.33 1.09 1.06 1.04 1.10 1.24 1.44 1.52 1.61 1.60 1.56 1.64 1.85 1.97 2.23 2.47 2.45 2.57 2.80 2.82 2.73 2.59 2.07 2.17 2.10 1.79 1.86 2.36 2.96 2.74 2.46 2.48 2.53 2.73 2.83
1.44 1.36 1.25 1.11 1.08 1.25 1.25 1.10 1.13 1.21 1.29 1.39 1.35 1.30 1.28 1.50 1.72 1.83 2.02 2.08 2.56 2.76 2.47 2.61 2.79 2.82 2.75 2.13 1.74 2.02 1.82 2.12 2.53 2.48 2.28 2.43 2.44 2.19
1.38 1.45 1.31 1.02 0.90 0.82 0.78 0.70 0.72 0.79 0.86 0.85 0.93 1.02 1.18 1.26 1.35 1.47 1.61 1.69 1.96 1.88 2.15 2.30 2.46 2.65 2.59 2.24 2.34 1.92 1.87 2.06 2.20 2.29 2.16 2.27 2.17 2.19
1.23 1.01 0.94 0.92 0.90 0.81 0.89 0.97 0.79 0.73 0.60 0.62 0.73 0.71 0.85 1.02 1.13 1.26 1.40 1.54 1.55 1.76 1.95 2.06 2.05 2.52 2.50 2.19 1.90 1.88 2.37 2.41 2.27 2.01 1.73 1.84 1.90 1.82
1.26 1.09 1.03 1.03 1.02 0.93 0.93 0.91 0.92 0.90 0.78 0.78 0.79 0.78 0.72 0.75 0.98 0.97 1.11 1.31 1.38 1.28 1.51 1.88 2.01 2.04 2.34 2.28 1.98 1.66 1.81 1.77 1.82 1.99 1.93 1.78 1.81 1.59
1.19 1.15 1.17 1.08 0.98 0.97 0.92 0.90 0.85 0.77 0.71 0.68 0.82 0.83 0.83 0.82 0.82 0.82 0.88 1.01 1.11 1.09 1.08 1.23 1.53 1.74 1.96 1.96 2.02 1.99 1.78 1.62 1.72 1.78 1.79 1.69 1.66 1.71
1.23 1.29 1.31 1.25 1.16 1.07 1.01 0.97 0.91 0.88 0.80 0.76 0.74 0.72 0.72 0.78 0.78 0.75 0.81 0.86 0.90 0.93 1.01 1.02 1.16 1.34 1.46 1.60 1.97 1.97 2.10 1.83 1.59 1.77 1.78 2.05 1.71 1.53
1.78 1.65 1.51 1.50 1.47 1.39 1.31 1.21 1.10 1.01 0.92 0.82 0.80 0.78 0.79 0.80 0.76 0.77 0.83 0.97 0.95 0.92 0.96 0.92 0.94 1.08 1.32 1.47 1.64 1.59 1.73 1.85 1.58 1.48 1.55 1.85 1.96 1.78
1.63 1.56 1.49 1.39 1.35 1.32 1.27 1.24 1.17 1.14 1.04 0.96 0.90 0.88 0.87 0.89 0.84 0.81 0.75 0.70 0.70 0.73 0.72 0.90 0.97 1.03 1.22 1.26 1.47 1.70 1.53 1.56 1.59 1.44 1.63 1.35 1.25 1.10

GFSNE_prec_precacc_249.txt.gz
Total_Precipitation_Accumulation
3.04 2.74 2.28 1.87 1.80 1.69 1.64 1.76 2.32 2.52 1.95 1.06 0.70 0.50 0.51 0.67 0.87 1.08 1.11 1.17 1.41 1.51 1.71 2.10 2.08 2.17 2.55 2.56 2.53 2.51 2.55 2.61 2.42 2.27 2.00 1.94 2.18 2.47
2.93 2.74 2.28 1.78 1.62 1.44 1.45 1.40 1.38 1.70 1.74 1.00 0.84 0.59 0.55 0.49 0.53 0.67 0.91 1.27 1.17 1.18 1.35 1.74 2.38 2.60 2.49 2.78 3.02 3.12 3.10 2.71 2.39 2.22 2.29 2.10 2.02 2.37
2.54 2.54 2.34 2.30 2.37 1.92 1.68 1.70 1.57 1.72 1.84 1.12 1.02 1.07 0.99 0.76 0.62 0.71 0.80 0.98 1.08 1.01 0.87 1.12 1.67 2.33 2.78 2.92 2.80 3.00 3.63 3.72 3.13 2.54 2.12 2.06 2.23 2.14
2.20 2.53 2.43 2.60 2.81 2.57 2.34 1.96 1.78 1.62 2.03 1.70 1.57 1.64 1.77 1.56 1.11 0.83 0.69 0.78 0.94 1.25 1.11 0.88 0.93 1.41 2.14 2.57 2.94 3.02 3.07 3.55 3.75 3.22 2.68 2.27 2.09 2.43
1.95 1.99 2.08 2.40 2.48 2.50 2.51 2.22 2.14 2.33 2.60 2.47 2.23 1.86 1.64 1.58 1.42 1.34 1.11 0.93 0.94 1.35 1.39 1.51 1.38 1.19 1.31 1.81 2.34 2.66 2.85 2.98 3.25 3.51 3.17 2.75 2.57 2.28
2.28 2.19 2.05 2.25 2.21 2.42 2.79 2.95 2.90 3.02 2.97 2.66 2.63 2.43 2.18 1.86 1.67 1.75 1.84 1.71 1.47 1.40 1.75 1.82 1.84 1.74 1.47 1.37 1.58 2.01 2.45 2.82 3.07 3.35 3.45 3.19 2.74 2.84
2.61 2.56 2.56 2.85 2.98 2.90 2.81 2.73 2.97 3.08 3.01 3.30 3.41 3.05 2.80 2.72 2.29 2.05 1.84 1.80 1.89 1.82 1.85 1.98 1.97 2.02 2.07 1.83 1.66 1.77 1.96 2.33 2.70 3.03 3.30 3.26 3.27 2.84
2.62 2.37 2.39 2.82 2.69 3.20 3.20 3.31 3.19 3.06 3.03 2.72 2.71 2.67 2.56 2.09 2.28 2.52 2.69 2.60 2.54 2.02 2.07 2.24 2.16 2.15 2.01 1.90 2.11 1.88 1.71 1.90 2.20 2.59 2.92 3.05 3.14 3.28
2.69 2.61 2.74 3.15 3.15 2.71 3.22 3.29 3.59 3.56 3.08 2.85 2.79 2.26 2.34 2.12 2.18 2.69 2.34 1.91 1.80 1.50 2.02 2.79 2.68 2.60 2.21 2.34 2.61 2.14 2.04 2.18 2.24 2.35 2.72 3.30 3.19 3.51
2.36 2.51 2.70 2.89 2.99 2.86 2.93 3.14 2.90 2.74 2.64 2.58 2.56 2.38 2.03 1.98 2.45 2.69 3.04 3.46 3.18 2.63 2.85 3.43 2.58 2.46 2.28 2.16 2.55 2.48 2.47 2.44 2.68 2.83 2.85 3.39 3.64 3.72
1.52 1.89 2.24 2.53 3.31 3.00 2.87 3.09 2.91 2.62 2.71 2.87 2.91 2.71 2.95 3.14 2.99 3.62 3.78 3.62 3.54 2.72 2.37 2.40 2.24 2.37 2.66 2.77 2.71 2.64 2.71 2.87 2.92 3.24 3.53 3.68 4.16 4.38
1.01 1.37 1.96 1.97 2.31 2.16 2.19 2.20 2.41 2.31 2.11 2.19 2.45 2.83 2.78 3.02 2.97 2.73 2.98 3.34 2.97 3.36 2.24 2.14 1.88 1.93 2.96 2.74 2.59 2.79 2.77 2.76 2.82 2.79 2.80 3.22 4.15 4.43
0.92 0.88 1.06 1.49 1.54 1.61 1.68 1.77 1.94 1.77 1.86 1.96 2.12 2.28 2.38 2.42 2.73 2.73 2.73 3.23 3.29 2.59 1.72 2.37 2.18 1.84 2.08 1.85 2.12 2.46 2.48 2.89 2.98 2.99 2.93 3.12 3.66 3.96
1.32 1.32 1.44 1.31 1.08 1.09 1.30 1.60 1.60 1.48 1.57 1.81 2.00 2.07 2.22 2.27 2.20 2.41 2.43 2.51 2.49 2.81 2.28 2.75 2.92 1.74 2.03 1.93 1.75 2.30 2.68 2.88 2.80 2.88 3.12 3.96 4.12 3.70
1.21 1.44 1.48 1.33 1.09 1.06 1.04 1.10 1.24 1.44 1.52 1.62 1.61 1.56 1.64 1.85 1.97 2.23 2.47 2.45 2.57 2.80 2.83 2.74 2.62 2.10 2.19 2.10 1.79 1.86 2.37 3.01 2.84 2.59 2.59 2.74 3.13 3.35
1.44 1.36 1.25 1.11 1.08 1.25 1.25 1.10 1.13 1.21 1.29 1.39 1.35 1.30 1.28 1.50 1.72 1.83 2.02 2.08 2.56 2.76 2.48 2.63 2.80 2.83 2.75 2.13 1.74 2.03 1.82 2.17 2.67 2.65 2.40 2.65 2.72 2.53
1.38 1.45 1.31 1.02 0.90 0.82 0.78 0.70 0.72 0.79 0.86 0.85 0.93 1.02 1.18 1.26 1.35 1.47 1.61 1.69 1.96 1.89 2.17 2.32 2.47 2.65 2.60 2.25 2.35 1.93 1.89 2.10 2.30 2.50 2.26 2.43 2.45 2.53
1.23 1.01 0.94 0.92 0.90 0.81 0.89 0.97 0.79 0.73 0.60 0.62 0.73 0.71 0.85 1.02 1.13 1.26 1.41 1.54 1.55 1.76 1.97 2.10 2.06 2.52 2.50 2.20 1.93 1.90 2.39 2.44 2.33 2.13 1.86 1.96 2.21 2.30
1.26 1.09 1.03 1.03 1.02 0.93 0.93 0.91 0.92 0.90 0.78 0.78 0.79 0.78 0.72 0.75 0.98 0.98 1.11 1.31 1.38 1.28 1.52 1.90 2.01 2.04 2.34 2.30 2.02 1.72 1.83 1.80 1.84 2.05 2.04 1.83 1.93 1.89
1.19 1.15 1.17 1.08 0.98 0.97 0.92 0.90 0.85 0.77 0.71 0.68 0.82 0.83 0.83 0.82 0.82 0.83 0.88 1.01 1.11 1.09 1.08 1.25 1.53 1.74 1.96 1.96 2.04 2.12 1.87 1.69 1.77 1.86 1.89 1.77 1.73 1.82
1.23 1.29 1.31 1.25 1.16 1.07 1.01 0.97 0.91 0.88 0.80 0.76 0.74 0.73 0.73 0.79 0.78 0.75 0.81 0.86 0.90 0.93 1.01 1.04 1.16 1.34 1.46 1.60 1.97 2.01 2.24 1.98 1.71 1.83 1.84 2.08 1.73 1.57
1.78 1.65 1.51 1.50 1.47 1.39 1.31 1.21 1.10 1.01 0.92 0.82 0.80 0.78 0.80 0.80 0.77 0.78 0.83 0.98 0.95 0.92 0.96 0.94 0.96 1.08 1.32 1.47 1.64 1.59 1.76 1.93 1.66 1.53 1.59 1.87 1.98 1.79
1.63 1.56 1.49 1.39 1.35 1.32 1.27 1.24 1.17 1.14 1.04 0.96 0.91 0.88 0.87 0.89 0.85 0.83 0.76 0.70 0.70 0.73 0.73 0.92 0.98 1.04 1.23 1.27 1.47 1.70 1.54 1.58 1.62 1.46 1.65 1.35 1.26 1.10

GFSNE_prec_precacc_252.txt.gz
Total_Precipitation_Accumulation
3.04 2.74 2.28 1.87 1.80 1.69 1.64 1.76 2.32 2.52 1.95 1.06 0.70 0.50 0.51 0.67 0.87 1.08 1.11 1.17 1.41 1.51 1.71 2.10 2.08 2.17 2.55 2.56 2.53 2.52 2.55 2.62 2.42 2.27 2.00 1.94 2.18 2.47
2.93 2.74 2.28 1.78 1.62 1.44 1.45 1.40 1.38 1.70 1.74 1.00 0.84 0.59 0.55 0.49 0.53 0.67 0.91 1.27 1.17 1.18 1.35 1.74 2.38 2.60 2.49 2.78 3.03 3.13 3.11 2.71 2.39 2.22 2.29 2.10 2.02 2.37
2.54 2.54 2.34 2.30 2.37 1.92 1.68 1.70 1.57 1.72 1.84 1.12 1.02 1.07 0.99 0.76 0.62 0.71 0.80 0.98 1.08 1.01 0.87 1.12 1.67 2.33 2.78 2.92 2.81 3.01 3.64 3.73 3.14 2.54 2.12 2.06 2.23 2.14
2.20 2.53 2.43 2.60 2.81 2.57 2.34 1.96 1.78 1.62 2.03 1.70 1.57 1.64 1.77 1.56 1.11 0.83 0.69 0.78 0.94 1.25 1.12 0.88 0.93 1.41 2.14 2.57 2.96 3.06 3.11 3.59 3.76 3.22 2.68 2.27 2.09 2.43
1.95 1.99 2.08 2.40 2.48 2.50 2.51 2.22 2.14 2.33 2.60 2.47 2.23 1.86 1.64 1.58 1.42 1.34 1.11 0.93 0.94 1.35 1.39 1.51 1.38 1.20 1.31 1.81 2.35 2.68 2.86 2.99 3.25 3.51 3.17 2.75 2.57 2.28
2.28 2.19 2.05 2.25 2.21 2.42 2.79 2.95 2.90 3.02 2.97 2.66 2.63 2.43 2.18 1.86 1.67 1.75 1.84 1.71 1.47 1.40 1.75 1.82 1.84 1.75 1.48 1.37 1.59 2.01 2.46 2.82 3.07 3.35 3.45 3.19 2.74 2.85
2.61 2.56 2.56 2.85 2.98 2.90 2.81 2.73 2.97 3.08 3.01 3.30 3.41 3.05 2.80 2.72 2.29 2.05 1.84 1.80 1.89 1.82 1.85 1.98 1.97 2.02 2.07 1.84 1.67 1.77 1.97 2.33 2.71 3.03 3.30 3.26 3.27 2.84
2.62 2.37 2.39 2.82 2.69 3.20 3.20 3.31 3.19 3.06 3.03 2.72 2.71 2.67 2.56 2.09 2.28 2.52 2.70 2.61 2.55 2.02 2.08 2.24 2.16 2.15 2.02 1.90 2.12 1.88 1.71 1.90 2.20 2.59 2.92 3.05 3.15 3.28
2.69 2.61 2.74 3.15 3.15 2.71 3.22 3.29 3.59 3.56 3.08 2.85 2.79 2.27 2.34 2.12 2.18 2.70 2.35 1.92 1.81 1.50 2.02 2.80 2.68 2.61 2.22 2.34 2.61 2.14 2.04 2.18 2.24 2.35 2.73 3.30 3.19 3.52
2.36 2.51 2.70 2.89 2.99 2.86 2.93 3.14 2.90 2.74 2.64 2.58 2.56 2.38 2.03 1.98 2.45 2.70 3.05 3.47 3.18 2.63 2.85 3.44 2.58 2.46 2.28 2.16 2.55 2.48 2.47 2.44 2.69 2.83 2.85 3.39 3.65 3.72
1.52 1.89 2.24 2.53 3.31 3.00 2.87 3.09 2.91 2.62 2.71 2.87 2.91 2.71 2.95 3.14 2.99 3.62 3.79 3.63 3.55 2.72 2.37 2.43 2.24 2.37 2.66 2.77 2.71 2.64 2.71 2.88 2.93 3.25 3.53 3.69 4.16 4.39
1.01 1.37 1.96 1.97 2.31 2.16 2.19 2.20 2.41 2.31 2.11 2.19 2.45 2.83 2.78 3.02 2.97 2.73 2.99 3.37 2.99 3.38 2.24 2.18 1.88 1.94 2.98 2.74 2.59 2.79 2.77 2.77 2.83 2.80 2.80 3.22 4.16 4.44
0.92 0.88 1.06 1.49 1.54 1.61 1.68 1.77 1.94 1.77 1.86 1.96 2.12 2.28 2.39 2.42 2.73 2.73 2.73 3.26 3.32 2.61 1.72 2.45 2.20 1.85 2.10 1.86 2.12 2.46 2.48 2.91 3.00 3.01 2.94 3.13 3.68 3.99
1.32 1.32 1.44 1.31 1.08 1.09 1.30 1.60 1.60 1.48 1.57 1.81 2.00 2.07 2.22 2.27 2.20 2.41 2.43 2.51 2.50 2.82 2.29 2.79 2.97 1.77 2.06 1.94 1.76 2.30 2.68 2.91 2.85 2.92 3.16 4.04 4.28 3.81
1.21 1.44 1.48 1.33 1.09 1.06 1.04 1.10 1.24 1.44 1.52 1.62 1.61 1.56 1.64 1.85 1.97 2.23 2.47 2.45 2.57 2.80 2.83 2.75 2.64 2.11 2.20 2.11 1.79 1.87 2.37 3.03 2.95 2.77 2.78 2.97 3.45 3.64
1.44 1.36 1.25 1.11 1.08 1.25 1.25 1.10 1.13 1.21 1.29 1.39 1.35 1.30 1.28 1.50 1.72 1.83 2.03 2.08 2.57 2.76 2.48 2.63 2.80 2.83 2.75 2.14 1.75 2.04 1.83 2.19 2.80 2.89 2.66 2.92 3.09 2.98
1.38 1.45 1.31 1.02 0.90 0.82 0.78 0.70 0.72 0.79 0.86 0.85 0.93 1.02 1.18 1.26 1.35 1.47 1.61 1.69 1.97 1.89 2.17 2.32 2.47 2.65 2.60 2.25 2.36 1.95 1.91 2.12 2.37 2.72 2.50 2.69 2.82 2.94
1.23 1.01 0.94 0.92 0.90 0.81 0.89 0.97 0.79 0.73 0.60 0.62 0.74 0.71 0.85 1.02 1.13 1.26 1.41 1.55 1.55 1.76 1.98 2.10 2.06 2.52 2.50 2.21 1.95 1.93 2.41 2.47 2.38 2.21 2.03 2.13 2.50 2.71
1.26 1.09 1.03 1.03 1.02 0.93 0.93 0.91 0.92 0.90 0.78 0.78 0.80 0.78 0.72 0.75 0.98 0.98 1.11 1.32 1.38 1.28 1.52 1.90 2.01 2.04 2.34 2.30 2.03 1.75 1.87 1.86 1.87 2.08 2.13 1.94 2.15 2.39
1.19 1.15 1.17 1.08 0.98 0.97 0.92 0.90 0.85 0.77 0.71 0.68 0.82 0.83 0.83 0.83 0.82 0.83 0.89 1.02 1.11 1.09 1.08 1.25 1.53 1.74 1.96 1.97 2.05 2.18 1.93 1.76 1.80 1.91 1.99 1.89 1.93 2.16
1.23 1.29 1.31 1.25 1.16 1.07 1.01 0.97 0.91 0.88 0.80 0.76 0.74 0.73 0.73 0.79 0.78 0.75 0.82 0.87 0.90 0.93 1.01 1.04 1.16 1.34 1.46 1.60 1.97 2.03 2.30 2.07 1.77 1.88 1.90 2.12 1.81 1.68
1.78 1.65 1.51 1.50 1.47 1.39 1.31 1.21 1.10 1.01 0.92 0.82 0.80 0.78 0.80 0.80 0.77 0.78 0.83 0.98 0.95 0.92 0.97 0.94 0.96 1.08 1.32 1.47 1.64 1.60 1.81 2.03 1.78 1.65 1.71 1.93 2.02 1.86
1.63 1.56 1.49 1.39 1.35 1.32 1.27 1.24 1.17 1.14 1.04 0.96 0.91 0.88 0.87 0.89 0.85 0.83 0.77 0.71 0.71 0.74 0.74 0.92 0.99 1.04 1.23 1.27 1.48 1.71 1.56 1.62 1.68 1.50 1.72 1.43 1.31 1.14

GFSNE_prec_precacc_258.txt.gz
Total_Precipitation_Accumulation
3.04 2.74 2.28 1.87 1.80 1.69 1.64 1.76 2.32 2.52 1.95 1.06 0.70 0.50 0.51 0.67 0.87 1.08 1.11 1.17 1.41 1.51 1.71 2.10 2.08 2.17 2.56 2.57 2.54 2.53 2.57 2.64 2.46 2.32 2.05 1.99 2.22 2.51
2.93 2.74 2.28 1.78 1.62 1.44 1.45 1.40 1.38 1.70 1.74 1.00 0.84 0.59 0.55 0.49 0.53 0.67 0.91 1.27 1.17 1.18 1.35 1.74 2.38 2.60 2.50 2.79 3.03 3.13 3.12 2.73 2.42 2.25 2.33 2.15 2.06 2.40
2.54 2.54 2.34 2.30 2.37 1.93 1.68 1.71 1.57 1.72 1.84 1.12 1.02 1.07 0.99 0.76 0.62 0.71 0.80 0.98 1.08 1.01 0.87 1.12 1.67 2.33 2.78 2.93 2.81 3.02 3.66 3.75 3.17 2.58 2.15 2.09 2.25 2.16
2.20 2.54 2.44 2.61 2.83 2.60 2.36 1.97 1.79 1.62 2.03 1.70 1.57 1.64 1.77 1.56 1.11 0.83 0.69 0.78 0.94 1.25 1.12 0.88 0.93 1.41 2.14 2.58 2.96 3.06 3.12 3.61 3.79 3.24 2.69 2.27 2.10 2.44
1.96 2.00 2.11 2.45 2.53 2.54 2.54 2.23 2.14 2.33 2.60 2.47 2.23 1.86 1.64 1.58 1.42 1.34 1.11 0.93 0.94 1.35 1.39 1.51 1.38 1.20 1.32 1.81 2.35 2.68 2.87 3.00 3.26 3.52 3.18 2.76 2.58 2.29
2.32 2.26 2.15 2.35 2.31 2.50 2.82 2.96 2.90 3.02 2.97 2.66 2.63 2.43 2.18 1.86 1.67 1.75 1.84 1.71 1.47 1.40 1.75 1.82 1.84 1.75 1.48 1.37 1.59 2.02 2.47 2.83 3.08 3.36 3.46 3.20 2.75 2.85
2.76 2.74 2.74 3.00 3.10 2.95 2.82 2.73 2.98 3.08 3.01 3.30 3.41 3.05 2.80 2.72 2.29 2.05 1.84 1.80 1.89 1.82 1.85 1.98 1.97 2.02 2.07 1.84 1.67 1.77 1.97 2.34 2.71 3.03 3.30 3.26 3.27 2.85
2.85 2.58 2.56 2.94 2.75 3.22 3.21 3.31 3.19 3.06 3.03 2.72 2.71 2.67 2.56 2.09 2.28 2.53 2.71 2.62 2.55 2.02 2.08 2.24 2.16 2.15 2.02 1.90 2.12 1.88 1.71 1.91 2.20 2.59 2.93 3.06 3.15 3.28
2.84 2.73 2.82 3.19 3.18 2.73 3.23 3.29 3.59 3.56 3.08 2.85 2.79 2.27 2.34 2.12 2.19 2.71 2.36 1.93 1.82 1.50 2.03 2.80 2.68 2.61 2.22 2.34 2.61 2.14 2.04 2.18 2.24 2.35 2.74 3.32 3.21 3.53
2.47 2.59 2.76 2.94 3.03 2.88 2.94 3.14 2.90 2.74 2.64 2.58 2.56 2.38 2.03 1.98 2.45 2.71 3.06 3.47 3.18 2.63 2.85 3.45 2.58 2.46 2.28 2.16 2.55 2.48 2.47 2.44 2.69 2.83 2.87 3.41 3.67 3.74
1.60 1.94 2.27 2.55 3.33 3.01 2.87 3.09 2.91 2.62 2.71 2.87 2.91 2.71 2.95 3.14 2.99 3.63 3.79 3.64 3.56 2.72 2.37 2.47 2.25 2.38 2.66 2.77 2.71 2.64 2.71 2.88 2.93 3.26 3.54 3.70 4.17 4.39
1.04 1.40 1.98 1.99 2.32 2.16 2.19 2.20 2.41 2.31 2.11 2.19 2.45 2.83 2.78 3.02 2.97 2.73 2.99 3.38 3.01 3.40 2.25 2.24 1.89 1.96 3.01 2.74 2.59 2.79 2.77 2.77 2.84 2.81 2.81 3.22 4.17 4.44
0.95 0.91 1.07 1.49 1.54 1.61 1.68 1.77 1.94 1.77 1.86 1.96 2.12 2.28 2.39 2.42 2.73 2.73 2.73 3.27 3.34 2.63 1.72 2.51 2.23 1.88 2.13 1.86 2.12 2.46 2.48 2.92 3.02 3.02 2.95 3.13 3.69 3.99
1.34 1.35 1.45 1.31 1.08 1.09 1.30 1.60 1.60 1.48 1.57 1.81 2.00 2.07 2.22 2.27 2.20 2.41 2.43 2.51 2.50 2.84 2.30 2.81 3.00 1.81 2.11 1.96 1.76 2.30 2.68 2.91 2.87 2.96 3.25 4.10 4.34 3.87
1.23 1.45 1.49 1.33 1.09 1.06 1.04 1.10 1.24 1.44 1.52 1.62 1.61 1.56 1.64 1.85 1.97 2.23 2.47 2.45 2.57 2.80 2.83 2.75 2.65 2.12 2.21 2.14 1.82 1.88 2.39 3.04 3.01 2.91 3.02 3.17 3.68 3.84
1.44 1.37 1.25 1.11 1.08 1.25 1.25 1.10 1.13 1.21 1.29 1.39 1.35 1.30 1.28 1.50 1.72 1.83 2.03 2.08 2.57 2.76 2.48 2.63 2.81 2.84 2.75 2.14 1.76 2.05 1.87 2.28 2.90 3.07 3.01 3.17 3.41 3.41
1.39 1.45 1.32 1.03 0.90 0.82 0.78 0.70 0.72 0.79 0.86 0.85 0.93 1.02 1.18 1.26 1.35 1.47 1.61 1.69 1.97 1.89 2.17 2.32 2.48 2.66 2.60 2.26 2.37 1.97 1.95 2.19 2.50 2.98 2.82 2.97 3.26 3.48
1.23 1.02 0.94 0.92 0.90 0.81 0.89 0.97 0.79 0.73 0.60 0.62 0.74 0.72 0.86 1.03 1.13 1.26 1.41 1.55 1.56 1.76 1.98 2.10 2.06 2.52 2.50 2.21 1.98 1.96 2.43 2.55 2.51 2.43 2.38 2.45 3.04 3.40
1.26 1.09 1.04 1.03 1.02 0.93 0.93 0.91 0.92 0.90 0.78 0.78 0.80 0.79 0.73 0.76 0.99 0.98 1.12 1.32 1.39 1.28 1.53 1.90 2.01 2.04 2.34 2.30 2.03 1.79 1.91 1.94 1.97 2.22 2.44 2.30 2.70 3.49
1.19 1.15 1.17 1.08 0.98 0.97 0.92 0.90 0.85 0.77 0.71 0.68 0.82 0.83 0.83 0.83 0.83 0.83 0.89 1.02 1.11 1.09 1.09 1.25 1.53 1.74 1.96 1.97 2.08 2.23 2.00 1.82 1.84 2.03 2.33 2.43 2.87 3.53
1.24 1.29 1.31 1.25 1.16 1.07 1.01 0.97 0.91 0.88 0.80 0.76 0.74 0.73 0.73 0.79 0.78 0.75 0.82 0.87 0.90 0.93 1.02 1.04 1.16 1.34 1.46 1.60 1.98 2.04 2.36 2.19 1.85 1.98 2.11 2.40 2.33 2.17
1.78 1.65 1.51 1.50 1.47 1.39 1.31 1.21 1.10 1.01 0.92 0.82 0.80 0.78 0.80 0.81 0.78 0.78 0.84 0.99 0.96 0.93 0.97 0.94 0.96 1.08 1.32 1.47 1.65 1.61 1.85 2.11 1.91 1.80 1.92 2.02 2.09 1.98
1.63 1.56 1.49 1.39 1.35 1.32 1.27 1.25 1.17 1.14 1.04 0.96 0.91 0.88 0.87 0.90 0.85 0.84 0.77 0.71 0.72 0.75 0.74 0.92 0.99 1.04 1.23 1.27 1.48 1.72 1.57 1.66 1.77 1.61 2.08 1.78 1.52 1.29

GFSNE_prec_precacc_264.txt.gz
Total_Precipitation_Accumulation
3.24 2.93 2.47 2.06 1.92 1.72 1.64 1.76 2.32 2.52 1.95 1.06 0.70 0.50 0.51 0.67 0.87 1.08 1.11 1.17 1.41 1.51 1.71 2.10 2.08 2.17 2.56 2.57 2.55 2.53 2.57 2.65 2.47 2.33 2.07 2.01 2.24 2.53
3.04 2.93 2.49 1.96 1.73 1.46 1.45 1.40 1.38 1.70 1.74 1.00 0.84 0.60 0.55 0.49 0.53 0.67 0.91 1.27 1.17 1.18 1.35 1.74 2.38 2.60 2.50 2.79 3.03 3.14 3.12 2.74 2.43 2.27 2.35 2.17 2.08 2.43
2.54 2.54 2.34 2.30 2.37 1.93 1.68 1.71 1.57 1.73 1.86 1.15 1.06 1.09 1.00 0.76 0.62 0.71 0.80 0.98 1.08 1.01 0.87 1.12 1.67 2.33 2.78 2.93 2.81 3.02 3.66 3.76 3.18 2.59 2.17 2.10 2.27 2.18
2.26 2.59 2.48 2.64 2.86 2.62 2.38 2.02 1.86 1.70 2.11 1.77 1.60 1.64 1.77 1.56 1.11 0.83 0.69 0.78 0.94 1.25 1.12 0.88 0.93 1.41 2.14 2.58 2.96 3.06 3.12 3.61 3.79 3.24 2.71 2.29 2.11 2.45
2.09 2.09 2.18 2.52 2.62 2.64 2.66 2.33 2.21 2.37 2.63 2.48 2.23 1.86 1.64 1.58 1.42 1.34 1.11 0.93 0.94 1.35 1.39 1.51 1.38 1.20 1.32 1.81 2.35 2.68 2.87 3.00 3.26 3.52 3.18 2.76 2.59 2.30
2.38 2.30 2.18 2.38 2.34 2.55 2.89 3.00 2.93 3.04 2.98 2.66 2.63 2.43 2.18 1.86 1.67 1.75 1.84 1.71 1.47 1.40 1.75 1.82 1.84 1.75 1.48 1.37 1.59 2.02 2.47 2.84 3.08 3.36 3.47 3.21 2.75 2.85
2.77 2.75 2.76 3.03 3.12 2.99 2.86 2.76 2.99 3.09 3.02 3.30 3.41 3.05 2.80 2.72 2.29 2.05 1.84 1.80 1.89 1.82 1.85 1.98 1.97 2.02 2.07 1.84 1.67 1.77 1.97 2.34 2.71 3.04 3.31 3.26 3.28 2.85
2.87 2.60 2.59 2.98 2.79 3.27 3.23 3.32 3.19 3.06 3.03 2.72 2.71 2.67 2.56 2.09 2.28 2.53 2.71 2.62 2.55 2.02 2.08 2.24 2.16 2.15 2.02 1.90 2.12 1.88 1.71 1.91 2.21 2.59 2.93 3.06 3.16 3.29
2.88 2.77 2.88 3.27 3.26 2.76 3.26 3.30 3.59 3.56 3.08 2.85 2.79 2.27 2.34 2.12 2.19 2.72 2.36 1.93 1.82 1.50 2.03 2.81 2.68 2.61 2.22 2.34 2.61 2.14 2.04 2.18 2.25 2.35 2.74 3.33 3.21 3.54
2.50 2.63 2.80 2.98 3.06 2.91 2.95 3.14 2.90 2.74 2.64 2.58 2.56 2.38 2.03 1.98 2.45 2.71 3.06 3.48 3.18 2.63 2.86 3.46 2.58 2.46 2.28 2.16 2.55 2.48 2.47 2.44 2.69 2.84 2.87 3.43 3.68 3.74
1.65 1.99 2.31 2.58 3.36 3.03 2.87 3.09 2.91 2.62 2.71 2.87 2.91 2.71 2.95 3.14 2.99 3.63 3.80 3.65 3.57 2.73 2.38 2.49 2.25 2.38 2.67 2.78 2.72 2.64 2.71 2.88 2.93 3.26 3.55 3.72 4.18 4.40
1.18 1.57 2.16 2.09 2.35 2.17 2.19 2.20 2.41 2.31 2.11 2.19 2.45 2.83 2.78 3.02 2.97 2.73 3.00 3.39 3.02 3.40 2.25 2.26 1.89 1.98 3.03 2.74 2.59 2.79 2.78 2.77 2.84 2.82 2.85 3.25 4.19 4.45
1.19 1.09 1.21 1.57 1.55 1.61 1.68 1.77 1.94 1.77 1.86 1.96 2.12 2.28 2.39 2.42 2.73 2.73 2.74 3.27 3.35 2.64 1.73 2.54 2.25 1.90 2.15 1.87 2.12 2.46 2.49 2.93 3.03 3.04 3.01 3.18 3.72 4.00
1.51 1.54 1.61 1.38 1.09 1.09 1.30 1.60 1.60 1.48 1.57 1.81 2.00 2.07 2.23 2.28 2.20 2.41 2.43 2.51 2.50 2.85 2.30 2.82 3.02 1.84 2.14 1.98 1.77 2.31 2.69 2.93 2.89 3.00 3.33 4.17 4.38 3.88
1.53 1.62 1.57 1.37 1.09 1.06 1.04 1.10 1.24 1.44 1.52 1.62 1.61 1.56 1.65 1.86 1.98 2.23 2.48 2.45 2.57 2.80 2.83 2.75 2.66 2.13 2.22 2.15 1.83 1.88 2.41 3.07 3.07 2.99 3.13 3.32 3.83 3.93
1.63 1.51 1.33 1.14 1.09 1.25 1.25 1.10 1.13 1.21 1.29 1.39 1.35 1.30 1.28 1.50 1.72 1.83 2.03 2.08 2.57 2.77 2.48 2.64 2.82 2.84 2.76 2.15 1.77 2.07 1.89 2.37 2.97 3.14 3.29 3.38 3.65 3.60
1.48 1.52 1.35 1.04 0.91 0.82 0.78 0.70 0.72 0.79 0.86 0.85 0.93 1.02 1.19 1.26 1.36 1.47 1.62 1.70 1.97 1.90 2.17 2.33 2.48 2.66 2.60 2.27 2.39 1.99 1.98 2.22 2.58 3.16 3.06 3.14 3.59 3.84
1.31 1.07 0.98 0.94 0.90 0.81 0.89 0.97 0.79 0.73 0.60 0.62 0.74 0.72 0.86 1.03 1.13 1.27 1.41 1.55 1.56 1.77 1.98 2.10 2.06 2.52 2.51 2.21 2.00 2.00 2.46 2.59 2.66 2.66 2.57 2.54 3.40 3.83
1.36 1.14 1.06 1.04 1.02 0.93 0.93 0.92 0.92 0.90 0.78 0.78 0.80 0.79 0.73 0.76 0.99 0.98 1.12 1.32 1.39 1.29 1.53 1.90 2.02 2.04 2.34 2.31 2.03 1.83 1.99 2.00 2.08 2.40 2.57 2.33 2.97 4.13
1.24 1.17 1.18 1.09 0.99 0.97 0.92 0.90 0.85 0.77 0.71 0.68 0.82 0.84 0.84 0.83 0.83 0.83 0.89 1.03 1.11 1.10 1.09 1.25 1.53 1.74 1.97 1.99 2.11 2.31 2.06 1.87 1.90 2.19 2.59 2.64 3.45 4.37
1.25 1.30 1.32 1.25 1.16 1.07 1.01 0.97 0.91 0.88 0.80 0.76 0.74 0.73 0.73 0.80 0.79 0.76 0.83 0.88 0.90 0.94 1.02 1.04 1.16 1.34 1.46 1.60 2.00 2.06 2.42 2.31 1.92 2.08 2.27 2.60 2.74 2.56
1.79 1.65 1.51 1.50 1.47 1.39 1.31 1.22 1.10 1.01 0.92 0.82 0.80 0.78 0.80 0.81 0.78 0.79 0.84 0.99 0.96 0.93 0.97 0.94 0.96 1.08 1.32 1.48 1.66 1.64 1.90 2.22 2.02 1.86 1.96 2.03 2.10 2.01
1.63 1.57 1.49 1.40 1.35 1.32 1.27 1.25 1.17 1.15 1.04 0.96 0.91 0.88 0.88 0.90 0.85 0.84 0.77 0.71 0.72 0.75 0.74 0.93 0.99 1.04 1.23 1.28 1.49 1.73 1.61 1.76 1.96 1.69 2.27 1.88 1.56 1.35